Time,TemperatureF,DewpointF,PressureIn,WindDirection,WindDirectionDegrees,WindSpeedMPH,WindSpeedGustMPH,Humidity,HourlyPrecipIn,Conditions,Clouds,dailyrainin,SoftwareType,DateUTC
2013-01-15 00:00:00,37.3,28.1,30.22,NW,311,0.0,2.0,69,0.00,,,0.00,WeatherCatV1.10B1784,2013-01-15 05:00:00,
2013-01-15 00:01:00,37.3,28.1,30.22,NW,311,0.0,1.0,69,0.00,,,0.00,WeatherCatV1.10B1784,2013-01-15 05:01:00,
2013-01-15 00:06:00,37.2,28.3,30.22,NW,311,1.0,1.0,70,0.00,,,0.00,WeatherCatV1.10B1784,2013-01-15 05:06:00,
2013-01-15 00:11:00,37.1,28.2,30.22,NW,311,0.0,1.0,70,0.00,,,0.00,WeatherCatV1.10B1784,2013-01-15 05:11:00,
2013-01-15 00:16:00,37.1,27.5,30.22,NW,319,3.0,8.0,68,0.00,,,0.00,WeatherCatV1.10B1784,2013-01-15 05:16:00,
2013-01-15 00:21:00,37.1,27.9,30.22,NW,319,0.0,4.0,69,0.00,,,0.00,WeatherCatV1.10B1784,2013-01-15 05:21:00,
2013-01-15 00:26:00,37.0,27.4,30.22,NW,319,2.0,3.0,68,0.00,,,0.00,WeatherCatV1.10B1784,2013-01-15 05:26:00,
2013-01-15 00:31:00,37.0,27.4,30.21,NW,319,2.0,2.0,68,0.00,,,0.00,WeatherCatV1.10B1784,2013-01-15 05:31:00,
2013-01-15 00:36:00,36.9,27.7,30.21,NW,319,1.0,2.0,69,0.00,,,0.00,WeatherCatV1.10B1784,2013-01-15 05:36:00,
2013-01-15 00:41:00,36.9,27.3,30.22,NW,319,0.0,7.0,68,0.00,,,0.00,WeatherCatV1.10B1784,2013-01-15 05:41:00,
2013-01-15 00:46:00,36.8,27.2,30.22,NW,319,0.0,0.0,68,0.00,,,0.00,WeatherCatV1.10B1784,2013-01-15 05:46:00,
2013-01-15 00:51:00,36.8,27.2,30.22,NW,319,1.0,3.0,68,0.00,,,0.00,WeatherCatV1.10B1784,2013-01-15 05:51:00,
2013-01-15 00:56:00,36.8,27.2,30.22,NW,319,0.0,3.0,68,0.00,,,0.00,WeatherCatV1.10B1784,2013-01-15 05:56:00,
2013-01-15 01:01:00,36.7,27.1,30.22,NW,319,0.0,3.0,68,0.00,,,0.00,WeatherCatV1.10B1784,2013-01-15 06:01:00,
2013-01-15 01:06:00,36.6,27.4,30.22,NW,319,0.0,0.0,69,0.00,,,0.00,WeatherCatV1.10B1784,2013-01-15 06:06:00,
2013-01-15 01:11:00,36.6,27.4,30.22,NW,319,0.0,5.0,69,0.00,,,0.00,WeatherCatV1.10B1784,2013-01-15 06:11:00,
2013-01-15 01:16:00,36.5,27.3,30.22,NW,319,3.0,4.0,69,0.00,,,0.00,WeatherCatV1.10B1784,2013-01-15 06:16:00,
2013-01-15 01:21:00,36.5,27.7,30.22,NW,319,0.0,0.0,70,0.00,,,0.00,WeatherCatV1.10B1784,2013-01-15 06:21:00,
2013-01-15 01:26:00,36.4,27.6,30.23,NW,319,1.0,3.0,70,0.00,,,0.00,WeatherCatV1.10B1784,2013-01-15 06:26:00,
2013-01-15 01:31:00,36.4,27.2,30.23,NW,319,3.0,3.0,69,0.00,,,0.00,WeatherCatV1.10B1784,2013-01-15 06:31:00,
2013-01-15 01:36:00,36.4,27.2,30.25,NW,317,1.0,4.0,69,0.00,,,0.00,WeatherCatV1.10B1784,2013-01-15 06:36:00,
2013-01-15 01:41:00,36.3,27.1,30.23,NW,317,2.0,3.0,69,0.00,,,0.00,WeatherCatV1.10B1784,2013-01-15 06:41:00,
2013-01-15 01:46:00,36.3,27.1,30.24,NW,317,0.0,2.0,69,0.00,,,0.00,WeatherCatV1.10B1784,2013-01-15 06:46:00,
2013-01-15 01:51:00,36.2,27.0,30.23,NW,317,0.0,1.0,69,0.00,,,0.00,WeatherCatV1.10B1784,2013-01-15 06:51:00,
2013-01-15 01:56:00,36.1,27.3,30.24,NW,317,2.0,3.0,70,0.00,,,0.00,WeatherCatV1.10B1784,2013-01-15 06:56:00,
2013-01-15 02:01:00,36.0,27.2,30.23,NW,317,0.0,0.0,70,0.00,,,0.00,WeatherCatV1.10B1784,2013-01-15 07:01:00,
2013-01-15 02:06:00,35.9,26.7,30.22,NW,317,2.0,2.0,69,0.00,,,0.00,WeatherCatV1.10B1784,2013-01-15 07:06:00,
2013-01-15 02:11:00,35.9,26.7,30.23,NW,317,0.0,0.0,69,0.00,,,0.00,WeatherCatV1.10B1784,2013-01-15 07:11:00,
2013-01-15 02:16:00,35.9,26.7,30.23,NW,317,0.0,0.0,69,0.00,,,0.00,WeatherCatV1.10B1784,2013-01-15 07:16:00,
2013-01-15 02:21:00,35.8,26.6,30.22,NW,317,0.0,0.0,69,0.00,,,0.00,WeatherCatV1.10B1784,2013-01-15 07:21:00,
2013-01-15 02:26:00,35.7,26.9,30.22,NW,317,0.0,0.0,70,0.00,,,0.00,WeatherCatV1.10B1784,2013-01-15 07:26:00,
2013-01-15 02:31:00,35.7,26.9,30.21,NW,317,0.0,0.0,70,0.00,,,0.00,WeatherCatV1.10B1784,2013-01-15 07:31:00,
2013-01-15 02:36:00,35.6,26.5,30.20,NW,317,0.0,0.0,69,0.00,,,0.00,WeatherCatV1.10B1784,2013-01-15 07:36:00,
2013-01-15 02:41:00,35.5,26.7,30.20,NW,317,0.0,0.0,70,0.00,,,0.00,WeatherCatV1.10B1784,2013-01-15 07:41:00,
2013-01-15 02:46:00,35.5,26.4,30.20,NW,317,0.0,0.0,69,0.00,,,0.00,WeatherCatV1.10B1784,2013-01-15 07:46:00,
2013-01-15 02:51:00,35.5,26.7,30.21,NW,317,0.0,0.0,70,0.00,,,0.00,WeatherCatV1.10B1784,2013-01-15 07:51:00,
2013-01-15 02:56:00,35.4,26.9,30.21,NW,317,0.0,0.0,71,0.00,,,0.00,WeatherCatV1.10B1784,2013-01-15 07:56:00,
2013-01-15 03:01:00,35.4,26.9,30.22,NW,317,0.0,0.0,71,0.00,,,0.00,WeatherCatV1.10B1784,2013-01-15 08:01:00,
2013-01-15 03:06:00,35.4,26.6,30.21,NW,317,0.0,0.0,70,0.00,,,0.00,WeatherCatV1.10B1784,2013-01-15 08:06:00,
2013-01-15 03:11:00,35.4,26.6,30.20,NW,317,0.0,0.0,70,0.00,,,0.00,WeatherCatV1.10B1784,2013-01-15 08:11:00,
2013-01-15 03:16:00,35.3,26.9,30.21,NW,317,0.0,0.0,71,0.00,,,0.00,WeatherCatV1.10B1784,2013-01-15 08:16:00,
2013-01-15 03:21:00,35.3,26.9,30.21,NW,317,0.0,0.0,71,0.00,,,0.00,WeatherCatV1.10B1784,2013-01-15 08:21:00,
2013-01-15 03:26:00,35.3,26.5,30.20,NW,317,0.0,0.0,70,0.00,,,0.00,WeatherCatV1.10B1784,2013-01-15 08:26:00,
2013-01-15 03:31:00,35.3,27.2,30.20,NW,317,0.0,0.0,72,0.00,,,0.00,WeatherCatV1.10B1784,2013-01-15 08:31:00,
2013-01-15 03:36:00,35.3,26.9,30.20,NW,317,0.0,0.0,71,0.00,,,0.00,WeatherCatV1.10B1784,2013-01-15 08:36:00,
2013-01-15 03:41:00,35.3,26.9,30.21,NW,317,0.0,0.0,71,0.00,,,0.00,WeatherCatV1.10B1784,2013-01-15 08:41:00,
2013-01-15 03:46:00,35.3,26.9,30.20,NW,317,0.0,0.0,71,0.00,,,0.00,WeatherCatV1.10B1784,2013-01-15 08:46:00,
2013-01-15 03:51:00,35.2,26.8,30.21,NW,317,0.0,0.0,71,0.00,,,0.00,WeatherCatV1.10B1784,2013-01-15 08:51:00,
2013-01-15 03:56:00,35.2,27.1,30.20,NW,317,0.0,0.0,72,0.00,,,0.00,WeatherCatV1.10B1784,2013-01-15 08:56:00,
2013-01-15 04:01:00,35.2,27.1,30.20,NW,317,0.0,0.0,72,0.00,,,0.00,WeatherCatV1.10B1784,2013-01-15 09:01:00,
2013-01-15 04:06:00,35.1,27.0,30.19,NW,317,0.0,0.0,72,0.00,,,0.00,WeatherCatV1.10B1784,2013-01-15 09:06:00,
2013-01-15 04:11:00,35.1,27.0,30.19,NW,317,0.0,0.0,72,0.00,,,0.00,WeatherCatV1.10B1784,2013-01-15 09:11:00,
2013-01-15 04:16:00,35.1,27.0,30.20,NW,317,0.0,0.0,72,0.00,,,0.00,WeatherCatV1.10B1784,2013-01-15 09:16:00,
2013-01-15 04:21:00,35.1,27.0,30.19,NW,317,0.0,0.0,72,0.00,,,0.00,WeatherCatV1.10B1784,2013-01-15 09:21:00,
2013-01-15 04:26:00,35.0,27.2,30.19,NW,317,0.0,0.0,73,0.00,,,0.00,WeatherCatV1.10B1784,2013-01-15 09:26:00,
2013-01-15 04:31:00,34.9,26.5,30.19,NW,317,0.0,0.0,71,0.00,,,0.00,WeatherCatV1.10B1784,2013-01-15 09:31:00,
2013-01-15 04:36:00,34.8,27.0,30.19,NW,317,0.0,0.0,73,0.00,,,0.00,WeatherCatV1.10B1784,2013-01-15 09:36:00,
2013-01-15 04:41:00,34.7,26.9,30.19,NW,317,0.0,0.0,73,0.00,,,0.00,WeatherCatV1.10B1784,2013-01-15 09:41:00,
2013-01-15 04:46:00,34.6,26.5,30.19,NW,317,0.0,0.0,72,0.00,,,0.00,WeatherCatV1.10B1784,2013-01-15 09:46:00,
2013-01-15 04:51:00,34.4,26.7,30.19,NW,317,0.0,0.0,73,0.00,,,0.00,WeatherCatV1.10B1784,2013-01-15 09:51:00,
2013-01-15 04:56:00,34.3,26.2,30.19,NW,317,0.0,0.0,72,0.00,,,0.00,WeatherCatV1.10B1784,2013-01-15 09:56:00,
2013-01-15 05:01:00,34.2,26.1,30.19,NW,317,0.0,0.0,72,0.00,,,0.00,WeatherCatV1.10B1784,2013-01-15 10:01:00,
2013-01-15 05:06:00,34.0,26.3,30.19,NW,317,0.0,0.0,73,0.00,,,0.00,WeatherCatV1.10B1784,2013-01-15 10:06:00,
2013-01-15 05:11:00,33.8,26.4,30.19,NW,317,0.0,0.0,74,0.00,,,0.00,WeatherCatV1.10B1784,2013-01-15 10:11:00,
2013-01-15 05:16:00,33.6,26.2,30.20,NW,317,0.0,0.0,74,0.00,,,0.00,WeatherCatV1.10B1784,2013-01-15 10:16:00,
2013-01-15 05:21:00,33.4,26.0,30.20,NW,317,0.0,0.0,74,0.00,,,0.00,WeatherCatV1.10B1784,2013-01-15 10:21:00,
2013-01-15 05:26:00,33.2,25.8,30.20,NW,317,0.0,0.0,74,0.00,,,0.00,WeatherCatV1.10B1784,2013-01-15 10:26:00,
2013-01-15 05:31:00,32.9,25.9,30.20,NW,317,0.0,0.0,75,0.00,,,0.00,WeatherCatV1.10B1784,2013-01-15 10:31:00,
2013-01-15 05:36:00,32.7,25.7,30.20,NW,317,0.0,0.0,75,0.00,,,0.00,WeatherCatV1.10B1784,2013-01-15 10:36:00,
2013-01-15 05:41:00,32.4,25.7,30.20,NW,317,0.0,0.0,76,0.00,,,0.00,WeatherCatV1.10B1784,2013-01-15 10:41:00,
2013-01-15 05:46:00,32.1,26.0,30.20,NW,317,0.0,0.0,78,0.00,,,0.00,WeatherCatV1.10B1784,2013-01-15 10:46:00,
2013-01-15 05:51:00,31.7,25.6,30.19,NW,317,0.0,0.0,78,0.00,,,0.00,WeatherCatV1.10B1784,2013-01-15 10:51:00,
2013-01-15 05:56:00,31.4,25.3,30.19,NW,317,0.0,0.0,78,0.00,,,0.00,WeatherCatV1.10B1784,2013-01-15 10:56:00,
2013-01-15 06:01:00,31.2,25.2,30.20,NW,317,0.0,0.0,78,0.00,,,0.00,WeatherCatV1.10B1784,2013-01-15 11:01:00,
2013-01-15 06:06:00,31.1,25.7,30.21,NW,317,0.0,0.0,80,0.00,,,0.00,WeatherCatV1.10B1784,2013-01-15 11:06:00,
2013-01-15 06:11:00,31.0,25.9,30.22,NW,317,0.0,0.0,81,0.00,,,0.00,WeatherCatV1.10B1784,2013-01-15 11:11:00,
2013-01-15 06:16:00,30.9,26.1,30.23,NW,317,0.0,0.0,82,0.00,,,0.00,WeatherCatV1.10B1784,2013-01-15 11:16:00,
2013-01-15 06:21:00,30.7,26.2,30.22,NW,317,0.0,0.0,83,0.00,,,0.00,WeatherCatV1.10B1784,2013-01-15 11:21:00,
2013-01-15 06:26:00,30.6,25.5,30.23,NW,317,0.0,0.0,81,0.00,,,0.00,WeatherCatV1.10B1784,2013-01-15 11:26:00,
2013-01-15 06:31:00,31.0,25.6,30.23,NW,317,0.0,0.0,80,0.00,,,0.00,WeatherCatV1.10B1784,2013-01-15 11:31:00,
2013-01-15 06:36:00,31.3,25.6,30.24,NW,317,0.0,2.0,79,0.00,,,0.00,WeatherCatV1.10B1784,2013-01-15 11:36:00,
2013-01-15 06:41:00,31.7,25.6,30.24,NW,317,0.0,0.0,78,0.00,,,0.00,WeatherCatV1.10B1784,2013-01-15 11:41:00,
2013-01-15 06:46:00,31.9,25.5,30.23,NW,317,0.0,0.0,77,0.00,,,0.00,WeatherCatV1.10B1784,2013-01-15 11:46:00,
2013-01-15 06:51:00,32.0,25.6,30.24,NW,317,0.0,0.0,77,0.00,,,0.00,WeatherCatV1.10B1784,2013-01-15 11:51:00,
2013-01-15 06:56:00,32.0,25.3,30.24,NW,317,0.0,0.0,76,0.00,,,0.00,WeatherCatV1.10B1784,2013-01-15 11:56:00,
2013-01-15 07:01:00,31.8,25.4,30.24,NW,317,0.0,0.0,77,0.00,,,0.00,WeatherCatV1.10B1784,2013-01-15 12:01:00,
2013-01-15 07:06:00,31.6,25.2,30.24,NW,317,0.0,0.0,77,0.00,,,0.00,WeatherCatV1.10B1784,2013-01-15 12:06:00,
2013-01-15 07:11:00,31.5,25.1,30.25,NW,317,0.0,0.0,77,0.00,,,0.00,WeatherCatV1.10B1784,2013-01-15 12:11:00,
2013-01-15 07:16:00,31.5,25.1,30.25,NW,317,0.0,0.0,77,0.00,,,0.00,WeatherCatV1.10B1784,2013-01-15 12:16:00,
2013-01-15 07:21:00,31.3,24.9,30.25,NW,317,0.0,0.0,77,0.00,,,0.00,WeatherCatV1.10B1784,2013-01-15 12:21:00,
2013-01-15 07:26:00,31.1,25.1,30.25,NW,317,0.0,0.0,78,0.00,,,0.00,WeatherCatV1.10B1784,2013-01-15 12:26:00,
2013-01-15 07:31:00,31.0,25.0,30.26,NW,317,0.0,0.0,78,0.00,,,0.00,WeatherCatV1.10B1784,2013-01-15 12:31:00,
2013-01-15 07:36:00,30.9,25.2,30.26,NW,317,0.0,0.0,79,0.00,,,0.00,WeatherCatV1.10B1784,2013-01-15 12:36:00,
2013-01-15 07:41:00,31.0,25.3,30.26,NW,317,0.0,0.0,79,0.00,,,0.00,WeatherCatV1.10B1784,2013-01-15 12:41:00,
2013-01-15 07:46:00,31.2,24.8,30.26,NW,317,0.0,0.0,77,0.00,,,0.00,WeatherCatV1.10B1784,2013-01-15 12:46:00,
2013-01-15 07:51:00,31.3,24.9,30.26,NW,317,0.0,0.0,77,0.00,,,0.00,WeatherCatV1.10B1784,2013-01-15 12:51:00,
2013-01-15 07:56:00,31.4,25.0,30.26,NW,317,0.0,3.0,77,0.00,,,0.00,WeatherCatV1.10B1784,2013-01-15 12:56:00,
2013-01-15 08:01:00,31.5,25.1,30.26,NW,317,0.0,0.0,77,0.00,,,0.00,WeatherCatV1.10B1784,2013-01-15 13:01:00,
2013-01-15 08:06:00,31.8,25.1,30.26,NW,317,0.0,2.0,76,0.00,,,0.00,WeatherCatV1.10B1784,2013-01-15 13:06:00,
2013-01-15 08:11:00,32.2,25.2,30.26,NW,317,0.0,2.0,75,0.00,,,0.00,WeatherCatV1.10B1784,2013-01-15 13:11:00,
2013-01-15 08:16:00,32.5,25.5,30.26,NW,317,0.0,0.0,75,0.00,,,0.00,WeatherCatV1.10B1784,2013-01-15 13:16:00,
2013-01-15 08:21:00,32.7,25.3,30.27,NW,317,1.0,3.0,74,0.00,,,0.00,WeatherCatV1.10B1784,2013-01-15 13:21:00,
2013-01-15 08:26:00,33.1,25.4,30.27,NW,317,2.0,2.0,73,0.00,,,0.00,WeatherCatV1.10B1784,2013-01-15 13:26:00,
2013-01-15 08:31:00,33.4,25.7,30.27,NW,317,1.0,1.0,73,0.00,,,0.00,WeatherCatV1.10B1784,2013-01-15 13:31:00,
2013-01-15 08:36:00,33.6,25.6,30.27,NW,317,1.0,2.0,72,0.00,,,0.00,WeatherCatV1.10B1784,2013-01-15 13:36:00,
2013-01-15 08:41:00,33.8,25.7,30.27,NW,317,0.0,0.0,72,0.00,,,0.00,WeatherCatV1.10B1784,2013-01-15 13:41:00,
2013-01-15 08:46:00,33.9,25.8,30.27,NW,317,1.0,2.0,72,0.00,,,0.00,WeatherCatV1.10B1784,2013-01-15 13:46:00,
2013-01-15 08:51:00,34.2,25.8,30.27,NW,317,2.0,4.0,71,0.00,,,0.00,WeatherCatV1.10B1784,2013-01-15 13:51:00,
2013-01-15 08:56:00,34.6,25.8,30.26,NW,317,0.0,2.0,70,0.00,,,0.00,WeatherCatV1.10B1784,2013-01-15 13:56:00,
2013-01-15 09:01:00,34.8,26.0,30.27,NW,317,1.0,2.0,70,0.00,,,0.00,WeatherCatV1.10B1784,2013-01-15 14:01:00,
2013-01-15 09:06:00,35.0,26.2,30.27,NW,317,0.0,1.0,70,0.00,,,0.00,WeatherCatV1.10B1784,2013-01-15 14:06:00,
2013-01-15 09:11:00,35.2,26.1,30.27,NW,317,0.0,3.0,69,0.00,,,0.00,WeatherCatV1.10B1784,2013-01-15 14:11:00,
2013-01-15 09:16:00,35.3,26.2,30.27,NW,317,0.0,2.0,69,0.00,,,0.00,WeatherCatV1.10B1784,2013-01-15 14:16:00,
2013-01-15 09:21:00,35.5,26.4,30.27,NW,317,1.0,1.0,69,0.00,,,0.00,WeatherCatV1.10B1784,2013-01-15 14:21:00,
2013-01-15 09:26:00,35.7,25.8,30.27,NW,317,2.0,2.0,67,0.00,,,0.00,WeatherCatV1.10B1784,2013-01-15 14:26:00,
2013-01-15 09:31:00,35.9,26.0,30.28,NW,317,2.0,2.0,67,0.00,,,0.00,WeatherCatV1.10B1784,2013-01-15 14:31:00,
2013-01-15 09:36:00,36.0,26.1,30.28,NW,317,0.0,2.0,67,0.00,,,0.00,WeatherCatV1.10B1784,2013-01-15 14:36:00,
2013-01-15 09:41:00,36.1,25.9,30.28,NW,317,3.0,3.0,66,0.00,,,0.00,WeatherCatV1.10B1784,2013-01-15 14:41:00,
2013-01-15 09:46:00,36.4,26.1,30.28,NW,317,0.0,2.0,66,0.00,,,0.00,WeatherCatV1.10B1784,2013-01-15 14:46:00,
2013-01-15 09:51:00,36.6,26.0,30.28,NW,317,0.0,1.0,65,0.00,,,0.00,WeatherCatV1.10B1784,2013-01-15 14:51:00,
2013-01-15 09:56:00,36.7,25.7,30.28,NW,317,0.0,4.0,64,0.00,,,0.00,WeatherCatV1.10B1784,2013-01-15 14:56:00,
2013-01-15 10:01:00,36.9,25.5,30.28,NW,317,1.0,5.0,63,0.00,,,0.00,WeatherCatV1.10B1784,2013-01-15 15:01:00,
2013-01-15 10:06:00,36.8,25.4,30.29,NW,325,3.0,7.0,63,0.00,,,0.00,WeatherCatV1.10B1784,2013-01-15 15:06:00,
2013-01-15 10:11:00,36.9,25.1,30.29,NW,325,2.0,3.0,62,0.00,,,0.00,WeatherCatV1.10B1784,2013-01-15 15:11:00,
2013-01-15 10:16:00,37.1,25.7,30.29,NW,325,2.0,3.0,63,0.00,,,0.00,WeatherCatV1.10B1784,2013-01-15 15:16:00,
2013-01-15 10:21:00,37.0,25.2,30.29,NE,44,1.0,2.0,62,0.00,,,0.00,WeatherCatV1.10B1784,2013-01-15 15:21:00,
2013-01-15 10:26:00,37.2,25.8,30.28,NE,44,1.0,3.0,63,0.00,,,0.00,WeatherCatV1.10B1784,2013-01-15 15:26:00,
2013-01-15 10:31:00,37.2,26.2,30.28,NE,44,0.0,1.0,64,0.00,,,0.00,WeatherCatV1.10B1784,2013-01-15 15:31:00,
2013-01-15 10:36:00,37.2,25.4,30.28,NE,44,0.0,0.0,62,0.00,,,0.00,WeatherCatV1.10B1784,2013-01-15 15:36:00,
2013-01-15 10:41:00,37.2,25.0,30.28,NE,44,2.0,4.0,61,0.00,,,0.00,WeatherCatV1.10B1784,2013-01-15 15:41:00,
2013-01-15 10:46:00,37.2,25.4,30.27,NE,44,2.0,3.0,62,0.00,,,0.00,WeatherCatV1.10B1784,2013-01-15 15:46:00,
2013-01-15 10:51:00,37.1,25.7,30.26,NE,44,0.0,0.0,63,0.00,,,0.00,WeatherCatV1.10B1784,2013-01-15 15:51:00,
2013-01-15 10:56:00,37.2,25.8,30.25,NE,44,0.0,2.0,63,0.00,,,0.00,WeatherCatV1.10B1784,2013-01-15 15:56:00,
2013-01-15 11:01:00,37.3,25.9,30.25,NE,44,0.0,1.0,63,0.00,,,0.00,WeatherCatV1.10B1784,2013-01-15 16:01:00,
2013-01-15 11:06:00,37.4,26.0,30.25,NE,44,0.0,0.0,63,0.00,,,0.00,WeatherCatV1.10B1784,2013-01-15 16:06:00,
2013-01-15 11:11:00,37.4,25.6,30.24,NE,44,1.0,1.0,62,0.00,,,0.00,WeatherCatV1.10B1784,2013-01-15 16:11:00,
2013-01-15 11:16:00,37.5,25.3,30.24,NE,44,0.0,0.0,61,0.00,,,0.00,WeatherCatV1.10B1784,2013-01-15 16:16:00,
2013-01-15 11:21:00,37.5,25.3,30.25,NE,44,0.0,1.0,61,0.00,,,0.00,WeatherCatV1.10B1784,2013-01-15 16:21:00,
2013-01-15 11:26:00,37.6,25.4,30.24,NE,44,1.0,2.0,61,0.00,,,0.00,WeatherCatV1.10B1784,2013-01-15 16:26:00,
2013-01-15 11:31:00,37.7,25.5,30.24,NE,44,0.0,1.0,61,0.00,,,0.00,WeatherCatV1.10B1784,2013-01-15 16:31:00,
2013-01-15 11:36:00,37.9,25.3,30.24,NE,44,0.0,2.0,60,0.00,,,0.00,WeatherCatV1.10B1784,2013-01-15 16:36:00,
2013-01-15 11:41:00,37.8,24.8,30.24,NE,44,0.0,1.0,59,0.00,,,0.00,WeatherCatV1.10B1784,2013-01-15 16:41:00,
2013-01-15 11:46:00,37.9,25.3,30.24,NE,44,0.0,3.0,60,0.00,,,0.00,WeatherCatV1.10B1784,2013-01-15 16:46:00,
2013-01-15 11:51:00,38.0,25.4,30.24,NE,44,0.0,2.0,60,0.00,,,0.00,WeatherCatV1.10B1784,2013-01-15 16:51:00,
2013-01-15 11:56:00,38.1,25.5,30.24,NE,44,0.0,0.0,60,0.00,,,0.00,WeatherCatV1.10B1784,2013-01-15 16:56:00,
2013-01-15 12:01:00,38.3,25.6,30.24,NE,44,0.0,0.0,60,0.00,,,0.00,WeatherCatV1.10B1784,2013-01-15 17:01:00,
2013-01-15 12:06:00,38.5,25.8,30.23,NE,44,0.0,0.0,60,0.00,,,0.00,WeatherCatV1.10B1784,2013-01-15 17:06:00,
2013-01-15 12:11:00,38.8,26.1,30.23,NE,44,1.0,1.0,60,0.00,,,0.00,WeatherCatV1.10B1784,2013-01-15 17:11:00,
2013-01-15 12:16:00,38.9,25.8,30.23,NE,44,0.0,1.0,59,0.00,,,0.00,WeatherCatV1.10B1784,2013-01-15 17:16:00,
2013-01-15 12:21:00,38.7,25.2,30.23,NE,44,0.0,0.0,58,0.00,,,0.00,WeatherCatV1.10B1784,2013-01-15 17:21:00,
2013-01-15 12:26:00,38.6,25.1,30.23,NE,44,0.0,0.0,58,0.00,,,0.00,WeatherCatV1.10B1784,2013-01-15 17:26:00,
2013-01-15 12:31:00,38.4,25.7,30.23,NE,44,0.0,1.0,60,0.00,,,0.00,WeatherCatV1.10B1784,2013-01-15 17:31:00,
2013-01-15 12:36:00,38.5,25.8,30.22,NE,44,0.0,0.0,60,0.00,,,0.00,WeatherCatV1.10B1784,2013-01-15 17:36:00,
2013-01-15 12:41:00,38.6,25.5,30.22,NE,44,0.0,0.0,59,0.00,,,0.00,WeatherCatV1.10B1784,2013-01-15 17:41:00,
2013-01-15 12:46:00,38.8,25.7,30.22,NE,44,0.0,0.0,59,0.00,,,0.00,WeatherCatV1.10B1784,2013-01-15 17:46:00,
2013-01-15 12:51:00,38.8,25.7,30.23,NE,44,0.0,0.0,59,0.00,,,0.00,WeatherCatV1.10B1784,2013-01-15 17:51:00,
2013-01-15 12:56:00,38.9,26.2,30.22,NE,44,0.0,0.0,60,0.00,,,0.00,WeatherCatV1.10B1784,2013-01-15 17:56:00,
2013-01-15 13:01:00,38.9,26.2,30.23,NE,44,0.0,2.0,60,0.00,,,0.00,WeatherCatV1.10B1784,2013-01-15 18:01:00,
2013-01-15 13:06:00,38.9,25.8,30.23,NE,44,0.0,1.0,59,0.00,,,0.00,WeatherCatV1.10B1784,2013-01-15 18:06:00,
2013-01-15 13:11:00,38.8,24.9,30.23,NE,44,0.0,3.0,57,0.00,,,0.00,WeatherCatV1.10B1784,2013-01-15 18:11:00,
2013-01-15 13:16:00,38.9,25.8,30.23,NE,44,0.0,0.0,59,0.00,,,0.00,WeatherCatV1.10B1784,2013-01-15 18:16:00,
2013-01-15 13:21:00,38.8,25.3,30.23,West,279,0.0,0.0,58,0.00,,,0.00,WeatherCatV1.10B1784,2013-01-15 18:21:00,
2013-01-15 13:26:00,38.8,26.1,30.23,West,279,0.0,1.0,60,0.00,,,0.00,WeatherCatV1.10B1784,2013-01-15 18:26:00,
2013-01-15 13:31:00,38.8,25.7,30.22,West,279,0.0,0.0,59,0.00,,,0.00,WeatherCatV1.10B1784,2013-01-15 18:31:00,
2013-01-15 13:36:00,38.8,25.3,30.23,West,279,0.0,0.0,58,0.00,,,0.00,WeatherCatV1.10B1784,2013-01-15 18:36:00,
2013-01-15 13:41:00,38.8,25.3,30.22,West,279,0.0,0.0,58,0.00,,,0.00,WeatherCatV1.10B1784,2013-01-15 18:41:00,
2013-01-15 13:46:00,38.9,25.4,30.22,West,279,0.0,0.0,58,0.00,,,0.00,WeatherCatV1.10B1784,2013-01-15 18:46:00,
2013-01-15 13:51:00,38.9,25.4,30.22,West,279,1.0,4.0,58,0.00,,,0.00,WeatherCatV1.10B1784,2013-01-15 18:51:00,
2013-01-15 13:57:00,38.9,25.4,30.22,West,279,1.0,1.0,58,0.00,,,0.00,WeatherCatV1.10B1784,2013-01-15 18:57:00,
2013-01-15 14:02:00,38.9,25.0,30.22,West,279,0.0,3.0,57,0.00,,,0.00,WeatherCatV1.10B1784,2013-01-15 19:02:00,
2013-01-15 14:07:00,38.9,25.4,30.22,West,279,0.0,2.0,58,0.00,,,0.00,WeatherCatV1.10B1784,2013-01-15 19:07:00,
2013-01-15 14:12:00,38.9,25.0,30.22,West,279,0.0,0.0,57,0.00,,,0.00,WeatherCatV1.10B1784,2013-01-15 19:12:00,
2013-01-15 14:17:00,39.0,25.5,30.22,West,279,0.0,0.0,58,0.00,,,0.00,WeatherCatV1.10B1784,2013-01-15 19:17:00,
2013-01-15 14:22:00,39.1,25.6,30.22,West,279,0.0,2.0,58,0.00,,,0.00,WeatherCatV1.10B1784,2013-01-15 19:22:00,
2013-01-15 14:27:00,38.9,25.0,30.22,West,279,2.0,2.0,57,0.00,,,0.00,WeatherCatV1.10B1784,2013-01-15 19:27:00,
2013-01-15 14:32:00,38.8,25.7,30.22,West,279,0.0,1.0,59,0.00,,,0.00,WeatherCatV1.10B1784,2013-01-15 19:32:00,
2013-01-15 14:37:00,38.9,26.2,30.22,West,279,0.0,0.0,60,0.00,,,0.00,WeatherCatV1.10B1784,2013-01-15 19:37:00,
2013-01-15 14:42:00,38.8,25.7,30.22,West,279,0.0,0.0,59,0.00,,,0.00,WeatherCatV1.10B1784,2013-01-15 19:42:00,
2013-01-15 14:47:00,38.6,25.5,30.22,West,279,0.0,2.0,59,0.00,,,0.00,WeatherCatV1.10B1784,2013-01-15 19:47:00,
2013-01-15 14:52:00,38.5,25.4,30.22,West,279,0.0,0.0,59,0.00,,,0.00,WeatherCatV1.10B1784,2013-01-15 19:52:00,
2013-01-15 14:57:00,38.5,25.8,30.22,West,279,0.0,0.0,60,0.00,,,0.00,WeatherCatV1.10B1784,2013-01-15 19:57:00,
2013-01-15 15:02:00,38.4,24.9,30.22,West,279,0.0,2.0,58,0.00,,,0.00,WeatherCatV1.10B1784,2013-01-15 20:02:00,
2013-01-15 15:07:00,38.4,25.3,30.22,West,279,0.0,1.0,59,0.00,,,0.00,WeatherCatV1.10B1784,2013-01-15 20:07:00,
2013-01-15 15:12:00,38.3,24.8,30.22,West,279,0.0,0.0,58,0.00,,,0.00,WeatherCatV1.10B1784,2013-01-15 20:12:00,
2013-01-15 15:17:00,38.3,24.8,30.21,West,279,0.0,0.0,58,0.00,,,0.00,WeatherCatV1.10B1784,2013-01-15 20:17:00,
2013-01-15 15:22:00,38.3,24.8,30.21,West,279,0.0,0.0,58,0.00,,,0.00,WeatherCatV1.10B1784,2013-01-15 20:22:00,
2013-01-15 15:27:00,38.3,24.4,30.20,West,279,0.0,0.0,57,0.00,,,0.00,WeatherCatV1.10B1784,2013-01-15 20:27:00,
2013-01-15 15:32:00,38.3,25.2,30.19,West,279,0.0,1.0,59,0.00,,,0.00,WeatherCatV1.10B1784,2013-01-15 20:32:00,
2013-01-15 15:37:00,38.3,24.8,30.20,West,279,0.0,0.0,58,0.00,,,0.00,WeatherCatV1.10B1784,2013-01-15 20:37:00,
2013-01-15 15:42:00,38.3,25.2,30.21,West,279,0.0,0.0,59,0.00,,,0.00,WeatherCatV1.10B1784,2013-01-15 20:42:00,
2013-01-15 15:47:00,38.2,24.7,30.22,West,279,0.0,0.0,58,0.00,,,0.00,WeatherCatV1.10B1784,2013-01-15 20:47:00,
2013-01-15 15:52:00,38.2,25.2,30.21,West,279,0.0,0.0,59,0.00,,,0.00,WeatherCatV1.10B1784,2013-01-15 20:52:00,
2013-01-15 15:57:00,38.1,25.1,30.21,West,279,0.0,0.0,59,0.00,,,0.00,WeatherCatV1.10B1784,2013-01-15 20:57:00,
2013-01-15 16:02:00,38.1,25.1,30.22,West,279,0.0,0.0,59,0.00,,,0.00,WeatherCatV1.10B1784,2013-01-15 21:02:00,
2013-01-15 16:07:00,37.9,24.9,30.22,West,279,0.0,0.0,59,0.00,,,0.00,WeatherCatV1.10B1784,2013-01-15 21:07:00,
2013-01-15 16:12:00,37.9,24.9,30.21,West,279,0.0,0.0,59,0.00,,,0.00,WeatherCatV1.10B1784,2013-01-15 21:12:00,
2013-01-15 16:17:00,37.7,25.1,30.22,West,279,0.0,0.0,60,0.00,,,0.00,WeatherCatV1.10B1784,2013-01-15 21:17:00,
2013-01-15 16:22:00,37.6,25.0,30.22,West,279,0.0,0.0,60,0.00,,,0.00,WeatherCatV1.10B1784,2013-01-15 21:22:00,
2013-01-15 16:27:00,37.5,24.9,30.21,West,279,0.0,0.0,60,0.00,,,0.00,WeatherCatV1.10B1784,2013-01-15 21:27:00,
2013-01-15 16:32:00,37.3,25.1,30.22,West,279,0.0,0.0,61,0.00,,,0.00,WeatherCatV1.10B1784,2013-01-15 21:32:00,
2013-01-15 16:37:00,37.0,25.2,30.22,West,279,0.0,0.0,62,0.00,,,0.00,WeatherCatV1.10B1784,2013-01-15 21:37:00,
2013-01-15 16:42:00,36.8,25.4,30.23,West,279,0.0,0.0,63,0.00,,,0.00,WeatherCatV1.10B1784,2013-01-15 21:42:00,
2013-01-15 16:47:00,36.6,25.6,30.23,West,279,0.0,0.0,64,0.00,,,0.00,WeatherCatV1.10B1784,2013-01-15 21:47:00,
2013-01-15 16:52:00,36.4,25.4,30.23,West,279,0.0,0.0,64,0.00,,,0.00,WeatherCatV1.10B1784,2013-01-15 21:52:00,
2013-01-15 16:57:00,36.2,25.2,30.23,West,279,0.0,0.0,64,0.00,,,0.00,WeatherCatV1.10B1784,2013-01-15 21:57:00,
2013-01-15 17:02:00,36.1,25.5,30.23,West,279,0.0,1.0,65,0.00,,,0.00,WeatherCatV1.10B1784,2013-01-15 22:02:00,
2013-01-15 17:07:00,36.0,25.4,30.23,West,279,0.0,0.0,65,0.00,,,0.00,WeatherCatV1.10B1784,2013-01-15 22:07:00,
2013-01-15 17:12:00,35.8,25.6,30.23,West,279,0.0,0.0,66,0.00,,,0.00,WeatherCatV1.10B1784,2013-01-15 22:12:00,
2013-01-15 17:17:00,35.7,25.8,30.23,West,279,0.0,0.0,67,0.00,,,0.00,WeatherCatV1.10B1784,2013-01-15 22:17:00,
2013-01-15 17:22:00,35.6,25.4,30.23,West,279,0.0,1.0,66,0.00,,,0.00,WeatherCatV1.10B1784,2013-01-15 22:22:00,
2013-01-15 17:27:00,35.6,25.4,30.23,West,279,0.0,0.0,66,0.00,,,0.00,WeatherCatV1.10B1784,2013-01-15 22:27:00,
2013-01-15 17:32:00,35.5,25.3,30.23,West,279,0.0,0.0,66,0.00,,,0.00,WeatherCatV1.10B1784,2013-01-15 22:32:00,
2013-01-15 17:37:00,35.5,25.3,30.23,West,279,0.0,0.0,66,0.00,,,0.00,WeatherCatV1.10B1784,2013-01-15 22:37:00,
2013-01-15 17:42:00,35.4,25.2,30.23,West,279,0.0,0.0,66,0.00,,,0.00,WeatherCatV1.10B1784,2013-01-15 22:42:00,
2013-01-15 17:47:00,35.3,25.5,30.23,West,279,0.0,0.0,67,0.00,,,0.00,WeatherCatV1.10B1784,2013-01-15 22:47:00,
2013-01-15 17:52:00,35.1,25.3,30.23,West,279,0.0,0.0,67,0.00,,,0.00,WeatherCatV1.10B1784,2013-01-15 22:52:00,
2013-01-15 17:57:00,35.0,25.5,30.23,West,279,0.0,0.0,68,0.00,,,0.00,WeatherCatV1.10B1784,2013-01-15 22:57:00,
2013-01-15 18:02:00,34.7,25.9,30.23,West,279,0.0,0.0,70,0.00,,,0.00,WeatherCatV1.10B1784,2013-01-15 23:02:00,
2013-01-15 18:07:00,34.3,25.2,30.24,West,279,0.0,0.0,69,0.00,,,0.00,WeatherCatV1.10B1784,2013-01-15 23:07:00,
2013-01-15 18:12:00,34.1,25.0,30.23,West,279,0.0,0.0,69,0.00,,,0.00,WeatherCatV1.10B1784,2013-01-15 23:12:00,
2013-01-15 18:17:00,33.8,24.7,30.24,West,279,0.0,0.0,69,0.00,,,0.00,WeatherCatV1.10B1784,2013-01-15 23:17:00,
2013-01-15 18:22:00,33.6,24.9,30.24,West,279,0.0,0.0,70,0.00,,,0.00,WeatherCatV1.10B1784,2013-01-15 23:22:00,
2013-01-15 18:27:00,33.5,24.8,30.25,West,279,0.0,0.0,70,0.00,,,0.00,WeatherCatV1.10B1784,2013-01-15 23:27:00,
2013-01-15 18:32:00,33.4,25.0,30.25,West,279,0.0,0.0,71,0.00,,,0.00,WeatherCatV1.10B1784,2013-01-15 23:32:00,
2013-01-15 18:37:00,33.3,25.3,30.24,West,279,0.0,0.0,72,0.00,,,0.00,WeatherCatV1.10B1784,2013-01-15 23:37:00,
2013-01-15 18:42:00,33.2,24.8,30.24,West,279,0.0,0.0,71,0.00,,,0.00,WeatherCatV1.10B1784,2013-01-15 23:42:00,
2013-01-15 18:47:00,33.1,24.7,30.24,West,279,0.0,0.0,71,0.00,,,0.00,WeatherCatV1.10B1784,2013-01-15 23:47:00,
2013-01-15 18:52:00,33.0,25.0,30.24,West,279,0.0,0.0,72,0.00,,,0.00,WeatherCatV1.10B1784,2013-01-15 23:52:00,
2013-01-15 18:57:00,32.8,24.4,30.24,West,279,0.0,0.0,71,0.00,,,0.00,WeatherCatV1.10B1784,2013-01-15 23:57:00,
2013-01-15 19:02:00,32.7,24.7,30.24,West,279,0.0,0.0,72,0.00,,,0.00,WeatherCatV1.10B1784,2013-01-16 00:02:00,
2013-01-15 19:07:00,32.5,25.5,30.24,West,279,0.0,0.0,75,0.00,,,0.00,WeatherCatV1.10B1784,2013-01-16 00:07:00,
2013-01-15 19:12:00,32.2,24.5,30.25,West,279,0.0,0.0,73,0.00,,,0.00,WeatherCatV1.10B1784,2013-01-16 00:12:00,
2013-01-15 19:17:00,31.9,24.9,30.25,West,279,0.0,0.0,75,0.00,,,0.00,WeatherCatV1.10B1784,2013-01-16 00:17:00,
2013-01-15 19:22:00,31.8,24.1,30.24,West,279,0.0,0.0,73,0.00,,,0.00,WeatherCatV1.10B1784,2013-01-16 00:22:00,
2013-01-15 19:27:00,31.9,24.2,30.24,West,279,0.0,0.0,73,0.00,,,0.00,WeatherCatV1.10B1784,2013-01-16 00:27:00,
2013-01-15 19:32:00,31.9,24.6,30.24,West,279,0.0,0.0,74,0.00,,,0.00,WeatherCatV1.10B1784,2013-01-16 00:32:00,
2013-01-15 19:37:00,31.8,24.5,30.24,West,279,0.0,0.0,74,0.00,,,0.00,WeatherCatV1.10B1784,2013-01-16 00:37:00,
2013-01-15 19:42:00,31.7,24.4,30.24,West,279,0.0,0.0,74,0.00,,,0.00,WeatherCatV1.10B1784,2013-01-16 00:42:00,
2013-01-15 19:47:00,31.6,24.9,30.24,West,279,0.0,0.0,76,0.00,,,0.00,WeatherCatV1.10B1784,2013-01-16 00:47:00,
2013-01-15 19:52:00,31.3,25.3,30.25,West,279,0.0,0.0,78,0.00,,,0.00,WeatherCatV1.10B1784,2013-01-16 00:52:00,
2013-01-15 19:57:00,31.1,25.1,30.24,West,279,0.0,0.0,78,0.00,,,0.00,WeatherCatV1.10B1784,2013-01-16 00:57:00,
2013-01-15 20:02:00,31.0,25.0,30.23,West,279,0.0,0.0,78,0.00,,,0.00,WeatherCatV1.10B1784,2013-01-16 01:02:00,
2013-01-15 20:07:00,31.0,24.7,30.23,West,279,0.0,0.0,77,0.00,,,0.00,WeatherCatV1.10B1784,2013-01-16 01:07:00,
2013-01-15 20:12:00,31.0,24.7,30.24,West,279,0.0,0.0,77,0.00,,,0.00,WeatherCatV1.10B1784,2013-01-16 01:12:00,
2013-01-15 20:17:00,31.0,25.0,30.24,West,279,0.0,0.0,78,0.00,,,0.00,WeatherCatV1.10B1784,2013-01-16 01:17:00,
2013-01-15 20:22:00,31.0,25.3,30.24,West,279,0.0,0.0,79,0.00,,,0.00,WeatherCatV1.10B1784,2013-01-16 01:22:00,
2013-01-15 20:27:00,31.0,25.3,30.24,West,279,0.0,0.0,79,0.00,,,0.00,WeatherCatV1.10B1784,2013-01-16 01:27:00,
2013-01-15 20:32:00,31.0,25.3,30.24,West,279,0.0,0.0,79,0.00,,,0.00,WeatherCatV1.10B1784,2013-01-16 01:32:00,
2013-01-15 20:37:00,31.0,25.3,30.23,West,279,0.0,0.0,79,0.00,,,0.00,WeatherCatV1.10B1784,2013-01-16 01:37:00,
2013-01-15 20:42:00,31.0,25.0,30.23,West,279,0.0,0.0,78,0.00,,,0.00,WeatherCatV1.10B1784,2013-01-16 01:42:00,
2013-01-15 20:47:00,31.1,25.1,30.23,West,279,0.0,0.0,78,0.00,,,0.00,WeatherCatV1.10B1784,2013-01-16 01:47:00,
2013-01-15 20:52:00,31.1,25.1,30.23,West,279,0.0,0.0,78,0.00,,,0.00,WeatherCatV1.10B1784,2013-01-16 01:52:00,
2013-01-15 20:57:00,31.1,25.4,30.23,West,279,0.0,0.0,79,0.00,,,0.00,WeatherCatV1.10B1784,2013-01-16 01:57:00,
2013-01-15 21:02:00,31.2,25.2,30.23,West,279,0.0,0.0,78,0.00,,,0.00,WeatherCatV1.10B1784,2013-01-16 02:02:00,
2013-01-15 21:07:00,31.3,24.9,30.23,West,279,0.0,0.0,77,0.00,,,0.00,WeatherCatV1.10B1784,2013-01-16 02:07:00,
2013-01-15 21:12:00,31.4,25.0,30.23,West,279,0.0,0.0,77,0.00,,,0.00,WeatherCatV1.10B1784,2013-01-16 02:12:00,
2013-01-15 21:17:00,31.4,25.0,30.23,West,279,0.0,0.0,77,0.00,,,0.00,WeatherCatV1.10B1784,2013-01-16 02:17:00,
2013-01-15 21:22:00,31.4,25.0,30.23,West,279,0.0,0.0,77,0.00,,,0.00,WeatherCatV1.10B1784,2013-01-16 02:22:00,
2013-01-15 21:27:00,31.4,25.3,30.23,West,279,0.0,0.0,78,0.00,,,0.00,WeatherCatV1.10B1784,2013-01-16 02:27:00,
2013-01-15 21:32:00,31.2,25.5,30.23,West,279,0.0,0.0,79,0.00,,,0.00,WeatherCatV1.10B1784,2013-01-16 02:32:00,
2013-01-15 21:37:00,31.2,25.5,30.23,West,279,0.0,0.0,79,0.00,,,0.00,WeatherCatV1.10B1784,2013-01-16 02:37:00,
2013-01-15 21:42:00,31.1,25.7,30.23,West,279,0.0,0.0,80,0.00,,,0.00,WeatherCatV1.10B1784,2013-01-16 02:42:00,
2013-01-15 21:47:00,31.0,25.6,30.23,West,279,0.0,0.0,80,0.00,,,0.00,WeatherCatV1.10B1784,2013-01-16 02:47:00,
2013-01-15 21:52:00,30.9,25.2,30.23,West,279,0.0,0.0,79,0.00,,,0.00,WeatherCatV1.10B1784,2013-01-16 02:52:00,
2013-01-15 21:57:00,30.8,24.8,30.22,West,279,0.0,0.0,78,0.00,,,0.00,WeatherCatV1.10B1784,2013-01-16 02:57:00,
2013-01-15 22:02:00,30.8,25.1,30.22,West,279,0.0,0.0,79,0.00,,,0.00,WeatherCatV1.10B1784,2013-01-16 03:02:00,
2013-01-15 22:07:00,30.8,25.4,30.22,West,279,0.0,0.0,80,0.00,,,0.00,WeatherCatV1.10B1784,2013-01-16 03:07:00,
2013-01-15 22:12:00,30.8,25.1,30.22,West,279,0.0,0.0,79,0.00,,,0.00,WeatherCatV1.10B1784,2013-01-16 03:12:00,
2013-01-15 22:17:00,30.8,25.1,30.21,West,279,0.0,0.0,79,0.00,,,0.00,WeatherCatV1.10B1784,2013-01-16 03:17:00,
2013-01-15 22:22:00,30.7,25.3,30.22,West,279,0.0,0.0,80,0.00,,,0.00,WeatherCatV1.10B1784,2013-01-16 03:22:00,
2013-01-15 22:27:00,30.6,25.5,30.22,West,279,0.0,0.0,81,0.00,,,0.00,WeatherCatV1.10B1784,2013-01-16 03:27:00,
2013-01-15 22:32:00,30.6,25.5,30.22,West,279,0.0,0.0,81,0.00,,,0.00,WeatherCatV1.10B1784,2013-01-16 03:32:00,
2013-01-15 22:37:00,30.5,25.7,30.21,West,279,0.0,0.0,82,0.00,,,0.00,WeatherCatV1.10B1784,2013-01-16 03:37:00,
2013-01-15 22:42:00,30.4,25.0,30.21,West,279,0.0,0.0,80,0.00,,,0.00,WeatherCatV1.10B1784,2013-01-16 03:42:00,
2013-01-15 22:47:00,30.4,25.0,30.21,West,279,0.0,0.0,80,0.00,,,0.00,WeatherCatV1.10B1784,2013-01-16 03:47:00,
2013-01-15 22:52:00,30.4,25.3,30.21,West,279,0.0,0.0,81,0.00,,,0.00,WeatherCatV1.10B1784,2013-01-16 03:52:00,
2013-01-15 22:57:00,30.4,25.3,30.22,West,279,0.0,0.0,81,0.00,,,0.00,WeatherCatV1.10B1784,2013-01-16 03:57:00,
2013-01-15 23:02:00,30.4,25.3,30.22,West,279,0.0,0.0,81,0.00,,,0.00,WeatherCatV1.10B1784,2013-01-16 04:02:00,
2013-01-15 23:07:00,30.4,25.3,30.23,West,279,0.0,0.0,81,0.00,,,0.00,WeatherCatV1.10B1784,2013-01-16 04:07:00,
2013-01-15 23:12:00,30.3,25.5,30.23,West,279,0.0,0.0,82,0.00,,,0.00,WeatherCatV1.10B1784,2013-01-16 04:12:00,
2013-01-15 23:17:00,30.3,25.2,30.22,West,279,0.0,0.0,81,0.00,,,0.00,WeatherCatV1.10B1784,2013-01-16 04:17:00,
2013-01-15 23:22:00,30.3,25.5,30.22,West,279,0.0,0.0,82,0.00,,,0.00,WeatherCatV1.10B1784,2013-01-16 04:22:00,
2013-01-15 23:27:00,30.3,25.5,30.21,West,279,0.0,0.0,82,0.00,,,0.00,WeatherCatV1.10B1784,2013-01-16 04:27:00,
2013-01-15 23:32:00,30.3,25.2,30.22,West,279,0.0,0.0,81,0.00,,,0.00,WeatherCatV1.10B1784,2013-01-16 04:32:00,
2013-01-15 23:37:00,30.4,25.9,30.21,West,279,0.0,0.0,83,0.00,,,0.00,WeatherCatV1.10B1784,2013-01-16 04:37:00,
2013-01-15 23:42:00,30.5,26.0,30.21,West,279,0.0,0.0,83,0.00,,,0.00,WeatherCatV1.10B1784,2013-01-16 04:42:00,
2013-01-15 23:47:00,30.5,26.0,30.21,West,279,0.0,0.0,83,0.00,,,0.00,WeatherCatV1.10B1784,2013-01-16 04:47:00,
2013-01-15 23:52:00,30.4,25.3,30.20,West,279,0.0,0.0,81,0.00,,,0.00,WeatherCatV1.10B1784,2013-01-16 04:52:00,
2013-01-15 23:57:00,30.5,25.1,30.21,West,279,0.0,0.0,80,0.00,,,0.00,WeatherCatV1.10B1784,2013-01-16 04:57:00,